Change the Weather History Date:

Wednesday, February 12, 2014

  Actual Average (KTRI) Record (KTRI)
Temperature  
Mean Temperature 26 °F 38 °F  
Max Temperature 30 °F 49 °F 68 °F (1938)
Min Temperature 21 °F 28 °F -1 °F (1981)
Degree Days  
Heating Degree Days 38 27  
Month to date heating degree days 334  
Since 1 July heating degree days 2988  
Cooling Degree Days 0 0  
Month to date cooling degree days 0  
Year to date cooling degree days 0  
Moisture  
Dew Point 18 °F    
Average Humidity 70    
Maximum Humidity 100    
Minimum Humidity 40    
Precipitation  
Precipitation 0.00 in 0.12 in 0.97 in (1948)
Month to date precipitation 1.49  
Year to date precipitation 4.86  
Snow  
Snow 0.00 in 0.10 in - ()
Month to date snowfall 1.6  
Since 1 July snowfall 9.0  
Snow Depth -    
Sea Level Pressure  
Sea Level Pressure 30.09 in    
Wind  
Wind Speed 7 mph (East)    
Max Wind Speed 16 mph    
Max Gust Speed -    
Visibility 7 miles    
Events Fog , Rain , Snow    
T = Trace of Precipitation, MM = Missing Value Source: NWS Daily Summary

Daily Weather History Graph

Daily Weather History Graph

Search for Another Location

Airport or City:

Trip Planner

Search our weather history database for the weather conditions in past years. The results will help you decide how hot, cold, wet, or windy it might be!

Date:

Astronomy

Feb. 12, 2014 Rise Set
Actual Time 7:19 AM EST 6:06 PM EST
Civil Twilight 6:53 AM EST 6:33 PM EST
Nautical Twilight 6:22 AM EST 7:03 PM EST
Astronomical Twilight 5:52 AM EST 7:33 PM EST
Moon 4:20 PM EST (2/12) 5:34 AM EST (2/12)
Length of Visible Light 11h 39m
Length of Day
10h 46m
Waxing Gibbous, 95% of the Moon is Illuminated
Feb 12
Waxing Gibbous
Feb 14
Full
Feb 22
Last Quarter
Mar 1
New
Mar 8
First Quarter

Hourly Weather History & Observations

Time (EST) Temp. Windchill Dew Point Humidity Pressure Visibility Wind Dir Wind Speed Gust Speed Precip Events Conditions
12:15 AM 24.8 °F 16.9 °F 15.8 °F 69% 30.24 in 10.0 mi East 6.9 mph - N/A   Clear
12:35 AM 24.8 °F 16.1 °F 17.6 °F 74% 30.24 in 10.0 mi East 8.1 mph - N/A   Clear
12:55 AM 26.6 °F 20.0 °F 15.8 °F 64% 30.22 in 10.0 mi East 5.8 mph - N/A   Clear
1:15 AM 26.6 °F 21.2 °F 17.6 °F 69% 30.23 in 10.0 mi East 4.6 mph - N/A   Clear
1:35 AM 26.6 °F 22.6 °F 15.8 °F 64% 30.23 in 10.0 mi ENE 3.5 mph - N/A   Clear
1:55 AM 26.6 °F 22.6 °F 15.8 °F 64% 30.22 in 10.0 mi East 3.5 mph - N/A   Clear
2:15 AM 26.6 °F - 17.6 °F 69% 30.22 in 10.0 mi Calm Calm - N/A   Clear
2:35 AM 28.4 °F 24.6 °F 17.6 °F 64% 30.22 in 10.0 mi ENE 3.5 mph - N/A   Clear
2:55 AM 28.4 °F 23.3 °F 17.6 °F 64% 30.21 in 10.0 mi ENE 4.6 mph - N/A   Clear
3:15 AM 28.4 °F 21.2 °F 17.6 °F 64% 30.21 in 10.0 mi ESE 6.9 mph - N/A   Clear
3:35 AM 28.4 °F 21.2 °F 17.6 °F 64% 30.21 in 10.0 mi ESE 6.9 mph - N/A   Clear
3:55 AM 28.4 °F 20.4 °F 17.6 °F 64% 30.21 in 10.0 mi ESE 8.1 mph - N/A   Clear
4:15 AM 28.4 °F 19.7 °F 17.6 °F 64% 30.20 in 10.0 mi ESE 9.2 mph - N/A   Clear
4:35 AM 28.4 °F 19.1 °F 15.8 °F 59% 30.19 in 10.0 mi East 10.4 mph - N/A   Clear
4:55 AM 28.4 °F 18.0 °F 15.8 °F 59% 30.20 in 10.0 mi ESE 12.7 mph - N/A   Clear
5:15 AM 28.4 °F 19.7 °F 15.8 °F 59% 30.20 in 10.0 mi East 9.2 mph - N/A   Clear
5:35 AM 28.4 °F 21.2 °F 15.8 °F 59% 30.19 in 10.0 mi East 6.9 mph - N/A   Clear
5:55 AM 28.4 °F 18.5 °F 14.0 °F 55% 30.19 in 10.0 mi East 11.5 mph - N/A   Scattered Clouds
6:15 AM 28.4 °F 19.7 °F 14.0 °F 55% 30.18 in 10.0 mi ESE 9.2 mph - N/A   Mostly Cloudy
6:35 AM 26.6 °F 17.5 °F 12.2 °F 55% 30.19 in 10.0 mi ESE 9.2 mph - N/A   Overcast
6:55 AM 28.4 °F 19.1 °F 12.2 °F 51% 30.20 in 10.0 mi East 10.4 mph - N/A   Scattered Clouds
7:15 AM 28.4 °F 18.5 °F 12.2 °F 51% 30.19 in 10.0 mi East 11.5 mph - N/A   Partly Cloudy
7:35 AM 28.4 °F 19.1 °F 10.4 °F 47% 30.19 in 10.0 mi East 10.4 mph - N/A   Mostly Cloudy
7:55 AM 28.4 °F 18.0 °F 10.4 °F 47% 30.20 in 10.0 mi East 12.7 mph - N/A   Scattered Clouds
8:15 AM 28.4 °F 18.5 °F 10.4 °F 47% 30.20 in 10.0 mi East 11.5 mph - N/A   Mostly Cloudy
8:35 AM 28.4 °F 17.5 °F 10.4 °F 47% 30.23 in 10.0 mi East 13.8 mph - N/A   Mostly Cloudy
8:55 AM 28.4 °F 18.0 °F 10.4 °F 47% 30.23 in 10.0 mi East 12.7 mph - N/A   Mostly Cloudy
9:15 AM 28.4 °F 19.1 °F 10.4 °F 47% 30.22 in 10.0 mi East 10.4 mph - N/A   Scattered Clouds
9:35 AM 28.4 °F 16.6 °F 10.4 °F 47% 30.23 in 10.0 mi East 16.1 mph - N/A   Clear
9:55 AM 28.4 °F 18.5 °F 10.4 °F 47% 30.20 in 10.0 mi East 11.5 mph - N/A   Clear
10:15 AM 28.4 °F 18.5 °F 10.4 °F 47% 30.20 in 10.0 mi East 11.5 mph - N/A   Clear
10:35 AM 30.2 °F 20.8 °F 8.6 °F 40% 30.19 in 10.0 mi East 11.5 mph - N/A   Partly Cloudy
10:55 AM 30.2 °F 21.3 °F 8.6 °F 40% 30.18 in 10.0 mi East 10.4 mph - N/A   Scattered Clouds
11:15 AM 30.2 °F 22.6 °F 8.6 °F 40% 30.17 in 10.0 mi East 8.1 mph - N/A   Partly Cloudy
11:35 AM 30.2 °F 22.6 °F 8.6 °F 40% 30.16 in 10.0 mi East 8.1 mph - N/A   Clear
11:55 AM 30.2 °F 21.3 °F 8.6 °F 40% 30.16 in 10.0 mi East 10.4 mph - N/A   Partly Cloudy
12:15 PM 30.2 °F 20.8 °F 8.6 °F 40% 30.15 in 10.0 mi East 11.5 mph - N/A   Mostly Cloudy
12:35 PM 30.2 °F 21.9 °F 12.2 °F 47% 30.14 in 10.0 mi SE 9.2 mph - N/A   Overcast
12:55 PM 28.4 °F 18.5 °F 19.4 °F 69% 30.14 in 5.0 mi ESE 11.5 mph - N/A Snow Light Snow
1:15 PM 26.6 °F 16.2 °F 21.2 °F 80% 30.12 in 1.0 mi East 11.5 mph - N/A Snow Light Snow
1:35 PM 26.6 °F 17.5 °F 23.0 °F 86% 30.11 in 1.0 mi East 9.2 mph - N/A Snow Light Snow
1:55 PM 26.6 °F 16.8 °F 23.0 °F 86% 30.11 in 1.2 mi East 10.4 mph - N/A Snow Light Snow
2:15 PM 26.6 °F 16.8 °F 23.0 °F 86% 30.09 in 1.0 mi East 10.4 mph - N/A Snow Light Snow
2:35 PM 26.6 °F 19.1 °F 23.0 °F 86% 30.08 in 0.8 mi East 6.9 mph - N/A Snow Light Snow
2:55 PM 26.6 °F 18.2 °F 23.0 °F 86% 30.06 in 3.0 mi ENE 8.1 mph - N/A Snow Light Snow
3:15 PM 26.6 °F 19.1 °F 23.0 °F 86% 30.06 in 4.0 mi East 6.9 mph - N/A   Overcast
3:35 PM 26.6 °F 19.1 °F 23.0 °F 86% 30.05 in 2.0 mi East 6.9 mph - N/A Snow Light Snow
3:55 PM 26.6 °F 19.1 °F 23.0 °F 86% 30.03 in 3.0 mi ESE 6.9 mph - N/A Snow Light Snow
4:15 PM 26.6 °F 20.0 °F 21.2 °F 80% 30.02 in 8.0 mi East 5.8 mph - N/A Snow Light Snow
4:35 PM 26.6 °F 20.0 °F 21.2 °F 80% 30.01 in 10.0 mi ESE 5.8 mph - N/A Snow Light Snow
4:55 PM 26.6 °F 21.2 °F 21.2 °F 80% 29.99 in 10.0 mi ESE 4.6 mph - N/A Snow Light Snow
5:15 PM 26.6 °F 22.6 °F 21.2 °F 80% 29.98 in 5.0 mi ESE 3.5 mph - N/A Snow Light Snow
5:35 PM 26.6 °F 21.2 °F 21.2 °F 80% 29.98 in 10.0 mi East 4.6 mph - N/A Rain Light Freezing Rain
5:55 PM 26.6 °F - 21.2 °F 80% 29.97 in 10.0 mi Calm Calm - N/A   Mostly Cloudy
6:15 PM 26.6 °F - 21.2 °F 80% 29.97 in 9.0 mi Calm Calm - N/A Snow Light Snow
6:35 PM 26.6 °F - 21.2 °F 80% 29.96 in 3.0 mi Calm Calm - N/A Snow Light Snow
6:55 PM 26.6 °F - 23.0 °F 86% 29.95 in 2.5 mi Calm Calm - N/A Snow Light Snow
7:15 PM 24.8 °F - 24.8 °F 100% 29.94 in 1.2 mi Calm Calm - N/A Snow Light Snow
7:35 PM 26.6 °F - 24.8 °F 93% 29.93 in 1.5 mi Calm Calm - N/A Snow Light Snow
7:55 PM 24.8 °F 17.9 °F 24.8 °F 100% 29.94 in 0.8 mi WNW 5.8 mph - N/A Snow Light Snow
8:15 PM 24.8 °F 20.5 °F 23.0 °F 93% 29.92 in 1.0 mi NW 3.5 mph - N/A Snow Light Snow
8:35 PM 24.8 °F - 24.8 °F 100% 29.92 in 0.5 mi Calm Calm - N/A Fog , Snow Snow
8:55 PM 24.8 °F - 24.8 °F 100% 29.91 in 0.8 mi Calm Calm - N/A Snow Light Snow
9:15 PM 24.8 °F - 23.0 °F 93% 29.90 in 1.0 mi Calm Calm - N/A Snow Light Snow
9:35 PM 24.8 °F - 24.8 °F 100% 29.90 in 2.5 mi Calm Calm - N/A Snow Light Snow
9:55 PM 24.8 °F 20.5 °F 23.0 °F 93% 29.89 in 4.0 mi SW 3.5 mph - N/A Snow Light Snow
10:15 PM 24.8 °F - 23.0 °F 93% 29.88 in 2.5 mi Calm Calm - N/A Snow Light Snow
10:35 PM 24.8 °F - 23.0 °F 93% 29.88 in 1.5 mi Calm Calm - N/A Snow Light Snow
10:55 PM 23.0 °F 17.0 °F 21.2 °F 93% 29.86 in 1.2 mi SW 4.6 mph - N/A Snow Light Snow
11:15 PM 23.0 °F 18.4 °F 21.2 °F 93% 29.85 in 1.5 mi SW 3.5 mph - N/A Snow Light Snow
11:35 PM 23.0 °F - 21.2 °F 93% 29.83 in 2.5 mi Calm Calm - N/A Snow Light Snow
11:55 PM 21.2 °F - 21.2 °F 100% 29.81 in 4.0 mi Calm Calm - N/A Snow Light Snow